H-2A DEB *, 48551

Orbit data source: Space-Track

H-2A DEB *, 48551 is space debris in SSO originally from a launch on Mon, 29 Oct 2018 UTC launched from the Tanegashima Space Center (TNSTA). Debris objects in space refer to the collection of defunct objects orbiting the Earth. Examples of debris include non-operational satellites, rocket bodies, and fragments generated from explosions, collisions, or faulty payload assembly.

Loading next visibility...
Identifier
48551, 2018-084DF
Orbit
SSO
Country
Flag of JPJP / JPN
Related business
Manufacturer
MHI Tobishima
Mission
Spacecraft
Bus & Motor
Unknown
Mass
Unknown
Launch date (UTC)
2018-10-29 (7 years ago)
Launch vehicle
Unknown
Launch site
Tanegashima Space Center (TNSTA)
Object type
Payload
Rocket body
Debris
Shape & HBR
Unknown shape, 0.1 m
Radar Cross Section
Small (<0.1 m²)

Expand to show TLE details & history
Last TLE update: 13 hours ago

TLE from 13 hours ago
0 H-2A DEB *
1 48551U 18084DF  26034.57196126  .00001647  00000-0  30905-3 0  9994
2 48551  97.9662 268.9659 0030780  64.4299 296.0081 14.65724678262489
Epoch: 2026-02-03T13:43Z
TLE epoch observation values (Epoch: 2026-02-03T13:43:37.452Z)
Latitude
-0.00006°
Longitude
-70.69112°
Altitude
668.283 km
Speed
7.528 km/s
True Right ascension
17h 55m 51s
True Declination
0° 00' 00"
Sunlit
Object was in daylight at epoch
Visualization orbit readout
Latitude
Unknown
Longitude
Unknown
Altitude
Unknown
Speed
Unknown
Apparent Right ascension
Unknown
Apparent Declination
Unknown
Sunlit
N/A
Visualization observer readout
Local Sidereal Time
05:03:39
Azimuth
Unknown
Elevation
Unknown
Doppler factor
Unknown
Orbital elements
Apogee altitude
693.512 km
Perigee altitude
650.113 km
Semi-major axis
7,049.95 km
Eccentricity
0.00308
Inclination
97.9662°
RAAN
268.9659°
Arg. of periapsis
64.4299°
True anomaly
295.69057°
Mean anomaly
296.0081°
Eccentric anomaly
295.84939°
Mean motion
3.66661 °/min
Orbital period
98.18 mins
BSTAR
0.00030905
Loading maneuver chart data...
Computing Atmospheric mass density...
Loading historical data...
Loading historical data...
Loading historical data...
Loading historical data...
Loading historical data...
Loading historical data...
Loading historical data...

Documentation

Showing up to 5 results
|